| time (UTC) | temp C | wind direction | speed KPH | gust KPH | rain 1hr cm | rain 24hr cm | rain mn cm | humidity % | barometer mb |
| 20260504202503 | 21 | 219 | 11.3 | 25.7 | 0.00 | 0.00 | 0.00 | 22 | 1003.8 |
| 20260504202003 | 21 | 198 | 9.7 | 24.1 | 0.00 | 0.00 | 0.00 | 23 | 1004.0 |
| 20260504201503 | 21 | 181 | 11.3 | 22.5 | 0.00 | 0.00 | 0.00 | 22 | 1004.1 |
| 20260504201003 | 21 | 193 | 11.3 | 29.0 | 0.00 | 0.00 | 0.00 | 23 | 1004.2 |
| 20260504200503 | 21 | 190 | 11.3 | 29.0 | 0.00 | 0.00 | 0.00 | 24 | 1004.3 |
| 20260504200003 | 21 | 179 | 12.9 | 25.7 | 0.00 | 0.00 | 0.00 | 25 | 1004.2 |
| 20260504195503 | 21 | 191 | 11.3 | 25.7 | 0.00 | 0.00 | 0.00 | 23 | 1004.4 |
| 20260504195003 | 21 | 216 | 9.7 | 22.5 | 0.00 | 0.00 | 0.00 | 26 | 1004.4 |
| 20260504194503 | 21 | 243 | 8.0 | 22.5 | 0.00 | 0.00 | 0.00 | 26 | 1004.4 |
| 20260504194214 | 21 | 238 | 8.0 | 22.5 | 0.00 | 0.00 | 0.00 | 25 | 1004.5 |
| 20260504193503 | 21 | 212 | 6.4 | 19.3 | 0.00 | 0.00 | 0.00 | 29 | 1004.6 |
| 20260504193214 | 21 | 199 | 8.0 | 25.7 | 0.00 | 0.00 | 0.00 | 26 | 1004.7 |
| 20260504192503 | 21 | 191 | 12.9 | 29.0 | 0.00 | 0.00 | 0.00 | 25 | 1004.7 |
| 20260504192003 | 21 | 189 | 12.9 | 29.0 | 0.00 | 0.00 | 0.00 | 28 | 1004.6 |
| 20260504191713 | 20 | 193 | 12.9 | 29.0 | 0.00 | 0.00 | 0.00 | 28 | 1004.8 |
| 20260504191003 | 20 | 199 | 11.3 | 32.2 | 0.00 | 0.00 | 0.00 | 27 | 1004.8 |
| 20260504190504 | 20 | 213 | 9.7 | 27.4 | 0.00 | 0.00 | 0.00 | 28 | 1004.8 |
| 20260504190003 | 20 | 208 | 11.3 | 25.7 | 0.00 | 0.00 | 0.00 | 27 | 1004.9 |
| 20260504185503 | 21 | 191 | 14.5 | 32.2 | 0.00 | 0.00 | 0.00 | 26 | 1004.9 |
| 20260504185003 | 21 | 177 | 14.5 | 32.2 | 0.00 | 0.00 | 0.00 | 28 | 1004.9 |
| 20260504184503 | 21 | 189 | 11.3 | 22.5 | 0.00 | 0.00 | 0.00 | 30 | 1005.0 |
| 20260504184003 | 21 | 222 | 11.3 | 30.6 | 0.00 | 0.00 | 0.00 | 32 | 1005.0 |
| 20260504183503 | 21 | 233 | 12.9 | 30.6 | 0.00 | 0.00 | 0.00 | 30 | 1005.0 |
| 20260504183003 | 21 | 233 | 14.5 | 32.2 | 0.00 | 0.00 | 0.00 | 28 | 1005.1 |
| 20260504182503 | 20 | 209 | 16.1 | 37.0 | 0.00 | 0.00 | 0.00 | 28 | 1005.2 |
| 20260504182003 | 20 | 210 | 12.9 | 37.0 | 0.00 | 0.00 | 0.00 | 27 | 1005.1 |
| 20260504181503 | 21 | 209 | 14.5 | 43.5 | 0.00 | 0.00 | 0.00 | 32 | 1005.2 |
| 20260504181213 | 20 | 205 | 14.5 | 43.5 | 0.00 | 0.00 | 0.00 | 32 | 1005.2 |
| 20260504180503 | 20 | 205 | 14.5 | 32.2 | 0.00 | 0.00 | 0.00 | 34 | 1005.2 |
| 20260504180003 | 20 | 203 | 14.5 | 32.2 | 0.00 | 0.00 | 0.00 | 32 | 1005.2 |
| 20260504175503 | 20 | 189 | 14.5 | 37.0 | 0.00 | 0.00 | 0.00 | 30 | 1005.4 |
| 20260504175003 | 19 | 201 | 16.1 | 37.0 | 0.00 | 0.00 | 0.00 | 30 | 1005.4 |
| 20260504174503 | 19 | 213 | 16.1 | 33.8 | 0.00 | 0.00 | 0.00 | 32 | 1005.4 |
| 20260504174213 | 19 | 218 | 14.5 | 33.8 | 0.00 | 0.00 | 0.00 | 32 | 1005.4 |
| 20260504173503 | 20 | 207 | 12.9 | 33.8 | 0.00 | 0.00 | 0.00 | 35 | 1005.5 |
| 20260504173003 | 20 | 212 | 14.5 | 33.8 | 0.00 | 0.00 | 0.00 | 33 | 1005.5 |
| 20260504172503 | 20 | 207 | 12.9 | 24.1 | 0.00 | 0.00 | 0.00 | 35 | 1005.4 |
| 20260504172003 | 19 | 199 | 12.9 | 27.4 | 0.00 | 0.00 | 0.00 | 37 | 1005.3 |
| 20260504171504 | 19 | 208 | 12.9 | 37.0 | 0.00 | 0.00 | 0.00 | 33 | 1005.5 |
| 20260504171003 | 19 | 201 | 12.9 | 37.0 | 0.00 | 0.00 | 0.00 | 34 | 1005.5 |
| 20260504170503 | 19 | 201 | 14.5 | 32.2 | 0.00 | 0.00 | 0.00 | 34 | 1005.7 |
| 20260504151003 | 15 | 167 | 19.3 | 37.0 | 0.00 | 0.00 | 0.00 | 37 | 1006.3 |
| 20260504150503 | 16 | 174 | 16.1 | 37.0 | 0.00 | 0.00 | 0.00 | 37 | 1006.6 |
| 20260504141003 | 14 | 192 | 20.9 | 38.6 | 0.00 | 0.00 | 0.00 | 42 | 1006.6 |
| 20260504140503 | 14 | 187 | 19.3 | 38.6 | 0.00 | 0.00 | 0.00 | 39 | 1006.7 |
| 20260504130713 | 12 | 197 | 16.1 | 40.2 | 0.00 | 0.00 | 0.00 | 43 | 1007.3 |
| 20260504110503 | 8 | 195 | 11.3 | 24.1 | 0.00 | 0.00 | 0.00 | 44 | 1007.3 |
| 20260504100503 | 8 | 196 | 11.3 | 25.7 | 0.00 | 0.00 | 0.00 | 44 | 1007.3 |
| 20260504082003 | 9 | 195 | 9.7 | 16.1 | 0.00 | 0.00 | 0.00 | 42 | 1007.8 |
| 20260504081503 | 9 | 195 | 9.7 | 16.1 | 0.00 | 0.00 | 0.00 | 42 | 1007.9 |
| 20260504081003 | 9 | 187 | 9.7 | 22.5 | 0.00 | 0.00 | 0.00 | 42 | 1007.9 |
| 20260504080503 | 9 | 188 | 11.3 | 22.5 | 0.00 | 0.00 | 0.00 | 42 | 1008.0 |
| 20260504060213 | 9 | 199 | 11.3 | 29.0 | 0.00 | 0.00 | 0.00 | 41 | 1008.5 |
| 20260504050714 | 10 | 194 | 9.7 | 24.1 | 0.00 | 0.00 | 0.00 | 39 | 1008.6 |
| 20260504050003 | 10 | 195 | 11.3 | 20.9 | 0.00 | 0.00 | 0.00 | 39 | 1008.6 |
| 20260504045503 | 10 | 201 | 9.7 | 22.5 | 0.00 | 0.00 | 0.00 | 39 | 1008.6 |
| 20260504045003 | 10 | 191 | 8.0 | 22.5 | 0.00 | 0.00 | 0.00 | 39 | 1008.6 |
| 20260504044504 | 10 | 185 | 8.0 | 22.5 | 0.00 | 0.00 | 0.00 | 39 | 1008.6 |
| 20260504044003 | 10 | 184 | 8.0 | 16.1 | 0.00 | 0.00 | 0.00 | 39 | 1008.6 |
| 20260504043503 | 9 | 175 | 6.4 | 14.5 | 0.00 | 0.00 | 0.00 | 40 | 1008.7 |
| 20260504043003 | 9 | 168 | 8.0 | 22.5 | 0.00 | 0.00 | 0.00 | 40 | 1008.8 |
| 20260504042503 | 10 | 173 | 6.4 | 22.5 | 0.00 | 0.00 | 0.00 | 40 | 1008.6 |
| 20260504042003 | 10 | 180 | 6.4 | 17.7 | 0.00 | 0.00 | 0.00 | 39 | 1008.8 |
| 20260504041503 | 10 | 177 | 6.4 | 17.7 | 0.00 | 0.00 | 0.00 | 39 | 1008.8 |
| 20260504041003 | 10 | 178 | 6.4 | 17.7 | 0.00 | 0.00 | 0.00 | 39 | 1008.8 |
| 20260504040713 | 10 | 181 | 6.4 | 12.9 | 0.00 | 0.00 | 0.00 | 39 | 1008.8 |
| 20260504040003 | 10 | 177 | 6.4 | 12.9 | 0.00 | 0.00 | 0.00 | 39 | 1008.9 |
| 20260504035503 | 10 | 173 | 6.4 | 16.1 | 0.00 | 0.00 | 0.00 | 39 | 1008.8 |
| 20260504035003 | 10 | 179 | 4.8 | 16.1 | 0.00 | 0.00 | 0.00 | 39 | 1008.8 |
| 20260504034503 | 10 | 182 | 4.8 | 11.3 | 0.00 | 0.00 | 0.00 | 38 | 1008.9 |
| 20260504034003 | 10 | 180 | 6.4 | 11.3 | 0.00 | 0.00 | 0.00 | 39 | 1008.8 |
| 20260504033503 | 10 | 187 | 6.4 | 19.3 | 0.00 | 0.00 | 0.00 | 38 | 1008.8 |
| 20260504033003 | 10 | 184 | 6.4 | 19.3 | 0.00 | 0.00 | 0.00 | 38 | 1008.9 |
| 20260504032503 | 10 | 180 | 6.4 | 16.1 | 0.00 | 0.00 | 0.00 | 38 | 1008.9 |
| 20260504032214 | 10 | 186 | 6.4 | 12.9 | 0.00 | 0.00 | 0.00 | 38 | 1008.8 |
| 20260504031503 | 10 | 192 | 6.4 | 11.3 | 0.00 | 0.00 | 0.00 | 38 | 1009.0 |
| 20260504031003 | 10 | 205 | 6.4 | 17.7 | 0.00 | 0.00 | 0.00 | 38 | 1008.9 |
| 20260504030503 | 10 | 201 | 8.0 | 17.7 | 0.00 | 0.00 | 0.00 | 38 | 1009.0 |
| 20260504030003 | 11 | 188 | 8.0 | 17.7 | 0.00 | 0.00 | 0.00 | 38 | 1009.0 |
| 20260504025503 | 11 | 191 | 9.7 | 24.1 | 0.00 | 0.00 | 0.00 | 38 | 1008.9 |
| 20260504025003 | 11 | 190 | 8.0 | 24.1 | 0.00 | 0.00 | 0.00 | 38 | 1009.0 |
| 20260504024503 | 11 | 191 | 8.0 | 20.9 | 0.00 | 0.00 | 0.00 | 37 | 1009.0 |
| 20260504024003 | 11 | 193 | 9.7 | 20.9 | 0.00 | 0.00 | 0.00 | 37 | 1009.1 |
| 20260504023713 | 11 | 195 | 8.0 | 20.9 | 0.00 | 0.00 | 0.00 | 38 | 1009.2 |
| 20260504023003 | 11 | 201 | 8.0 | 24.1 | 0.00 | 0.00 | 0.00 | 37 | 1009.2 |
| 20260504022503 | 11 | 204 | 8.0 | 24.1 | 0.00 | 0.00 | 0.00 | 37 | 1009.2 |
| 20260504022003 | 11 | 218 | 8.0 | 16.1 | 0.00 | 0.00 | 0.00 | 37 | 1009.2 |
| 20260504021713 | 11 | 223 | 8.0 | 16.1 | 0.00 | 0.00 | 0.00 | 37 | 1009.3 |
| 20260504021003 | 11 | 232 | 9.7 | 27.4 | 0.00 | 0.00 | 0.00 | 35 | 1009.4 |
| 20260504020503 | 11 | 237 | 9.7 | 27.4 | 0.00 | 0.00 | 0.00 | 35 | 1009.4 |
| 20260504020003 | 11 | 220 | 9.7 | 25.7 | 0.00 | 0.00 | 0.00 | 35 | 1009.3 |
| 20260504015503 | 11 | 208 | 9.7 | 22.5 | 0.00 | 0.00 | 0.00 | 34 | 1009.2 |
| 20260504015003 | 11 | 214 | 6.4 | 25.7 | 0.00 | 0.00 | 0.00 | 35 | 1009.2 |
| 20260504014503 | 11 | 235 | 4.8 | 25.7 | 0.00 | 0.00 | 0.00 | 36 | 1009.3 |
| 20260504014003 | 11 | 245 | 6.4 | 19.3 | 0.00 | 0.00 | 0.00 | 36 | 1009.2 |
| 20260504013503 | 11 | 248 | 6.4 | 19.3 | 0.00 | 0.00 | 0.00 | 36 | 1009.3 |
| 20260504013003 | 11 | 247 | 6.4 | 16.1 | 0.00 | 0.00 | 0.00 | 36 | 1009.3 |
| 20260504012503 | 11 | 234 | 4.8 | 14.5 | 0.00 | 0.00 | 0.00 | 36 | 1009.4 |
| 20260504012003 | 11 | 233 | 6.4 | 29.0 | 0.00 | 0.00 | 0.00 | 36 | 1009.2 |
| 20260504011503 | 11 | 234 | 8.0 | 29.0 | 0.00 | 0.00 | 0.00 | 36 | 1009.2 |
| 20260504011003 | 11 | 238 | 6.4 | 22.5 | 0.00 | 0.00 | 0.00 | 36 | 1009.2 |
| 20260504010503 | 11 | 238 | 6.4 | 20.9 | 0.00 | 0.00 | 0.00 | 36 | 1009.2 |
| 20260504010213 | 11 | 237 | 6.4 | 20.9 | 0.00 | 0.00 | 0.00 | 36 | 1009.2 |
| 20260504005503 | 11 | 225 | 6.4 | 33.8 | 0.00 | 0.00 | 0.00 | 35 | 1009.2 |
| 20260504005003 | 11 | 238 | 8.0 | 33.8 | 0.00 | 0.00 | 0.00 | 34 | 1009.4 |
| 20260504004503 | 11 | 247 | 8.0 | 25.7 | 0.00 | 0.00 | 0.00 | 32 | 1009.5 |
| 20260504004003 | 11 | 244 | 8.0 | 30.6 | 0.00 | 0.00 | 0.00 | 33 | 1009.4 |
| 20260504003503 | 11 | 243 | 9.7 | 30.6 | 0.00 | 0.00 | 0.00 | 31 | 1009.1 |
| 20260504003213 | 11 | 225 | 9.7 | 22.5 | 0.00 | 0.00 | 0.00 | 31 | 1009.1 |
| 20260504002714 | 11 | 219 | 8.0 | 37.0 | 0.00 | 0.00 | 0.00 | 31 | 1009.1 |
| 20260504002003 | 11 | 227 | 8.0 | 37.0 | 0.00 | 0.00 | 0.00 | 31 | 1008.9 |
| 20260504001503 | 11 | 226 | 9.7 | 24.1 | 0.00 | 0.00 | 0.00 | 32 | 1009.0 |
| 20260504001003 | 11 | 216 | 11.3 | 37.0 | 0.00 | 0.00 | 0.00 | 31 | 1009.0 |
| 20260504000503 | 11 | 217 | 8.0 | 37.0 | 0.00 | 0.00 | 0.00 | 32 | 1009.1 |
| 20260504000003 | 11 | 243 | 8.0 | 25.7 | 0.00 | 0.00 | 0.00 | 31 | 1009.0 |
| 20260503235503 | 11 | 246 | 9.7 | 35.4 | 0.00 | 0.00 | 0.00 | 31 | 1009.0 |
| 20260503235003 | 11 | 256 | 12.9 | 35.4 | 0.00 | 0.00 | 0.00 | 30 | 1009.0 |
| 20260503234714 | 11 | 257 | 11.3 | 35.4 | 0.00 | 0.00 | 0.00 | 30 | 1008.9 |
| 20260503234003 | 11 | 244 | 12.9 | 43.5 | 0.00 | 0.00 | 0.00 | 29 | 1009.0 |
| 20260503233503 | 12 | 248 | 9.7 | 43.5 | 0.00 | 0.00 | 0.00 | 29 | 1008.9 |
| 20260503233003 | 12 | 240 | 6.4 | 24.1 | 0.00 | 0.00 | 0.00 | 29 | 1009.0 |
| 20260503232503 | 12 | 262 | 9.7 | 24.1 | 0.00 | 0.00 | 0.00 | 28 | 1008.8 |
| 20260503232212 | 12 | 263 | 8.0 | 24.1 | 0.00 | 0.00 | 0.00 | 27 | 1008.8 |
| 20260503231503 | 12 | 252 | 9.7 | 32.2 | 0.00 | 0.00 | 0.00 | 28 | 1008.7 |
| 20260503231003 | 12 | 246 | 8.0 | 32.2 | 0.00 | 0.00 | 0.00 | 28 | 1008.6 |
| 20260503230503 | 12 | 230 | 6.4 | 19.3 | 0.00 | 0.00 | 0.00 | 28 | 1008.5 |
| 20260503230003 | 12 | 227 | 6.4 | 19.3 | 0.00 | 0.00 | 0.00 | 28 | 1008.6 |
| 20260503225503 | 12 | 217 | 6.4 | 20.9 | 0.00 | 0.00 | 0.00 | 28 | 1008.5 |
| 20260503225003 | 12 | 210 | 4.8 | 20.9 | 0.00 | 0.00 | 0.00 | 28 | 1008.5 |
| 20260503224503 | 12 | 239 | 4.8 | 12.9 | 0.00 | 0.00 | 0.00 | 29 | 1008.7 |
| 20260503224212 | 12 | 243 | 4.8 | 12.9 | 0.00 | 0.00 | 0.00 | 27 | 1008.5 |
| 20260503223713 | 12 | 253 | 6.4 | 22.5 | 0.00 | 0.00 | 0.00 | 26 | 1008.6 |
| 20260503223003 | 12 | 253 | 14.5 | 45.1 | 0.00 | 0.00 | 0.00 | 26 | 1008.4 |
| 20260503222503 | 12 | 260 | 9.7 | 37.0 | 0.00 | 0.00 | 0.00 | 25 | 1008.6 |
| 20260503222003 | 12 | 256 | 6.4 | 27.4 | 0.00 | 0.00 | 0.00 | 25 | 1008.5 |
| 20260503221713 | 12 | 248 | 6.4 | 27.4 | 0.00 | 0.00 | 0.00 | 26 | 1008.5 |
| 20260503221214 | 12 | 237 | 9.7 | 33.8 | 0.00 | 0.00 | 0.00 | 26 | 1008.6 |
| 20260503220713 | 12 | 243 | 8.0 | 33.8 | 0.00 | 0.00 | 0.00 | 27 | 1008.6 |
| 20260503220003 | 12 | 259 | 8.0 | 24.1 | 0.00 | 0.00 | 0.00 | 28 | 1008.4 |
| 20260503215503 | 12 | 252 | 9.7 | 29.0 | 0.00 | 0.00 | 0.00 | 27 | 1008.4 |
| 20260503215003 | 12 | 246 | 9.7 | 30.6 | 0.00 | 0.00 | 0.00 | 27 | 1008.3 |
| 20260503214503 | 13 | 228 | 6.4 | 30.6 | 0.00 | 0.00 | 0.00 | 29 | 1008.3 |
| 20260503214003 | 12 | 220 | 4.8 | 17.7 | 0.00 | 0.00 | 0.00 | 28 | 1008.3 |
| 20260503213713 | 12 | 305 | 4.8 | 20.9 | 0.00 | 0.00 | 0.00 | 29 | 1008.4 |
| 20260503213003 | 12 | 324 | 3.2 | 20.9 | 0.00 | 0.00 | 0.00 | 29 | 1008.3 |
| 20260503212503 | 12 | 276 | 3.2 | 11.3 | 0.00 | 0.00 | 0.00 | 32 | 1008.3 |
| 20260503212003 | 12 | 266 | 3.2 | 14.5 | 0.00 | 0.00 | 0.00 | 33 | 1008.4 |
| 20260503211503 | 12 | 249 | 4.8 | 14.5 | 0.00 | 0.00 | 0.00 | 30 | 1008.4 |
| 20260503211003 | 12 | 229 | 4.8 | 14.5 | 0.00 | 0.00 | 0.00 | 32 | 1008.3 |
| 20260503210503 | 12 | 205 | 4.8 | 17.7 | 0.00 | 0.00 | 0.00 | 31 | 1008.3 |
| 20260503210003 | 12 | 191 | 8.0 | 19.3 | 0.00 | 0.00 | 0.00 | 30 | 1008.4 |
| 20260503205713 | 12 | 186 | 8.0 | 19.3 | 0.00 | 0.00 | 0.00 | 31 | 1008.4 |
| 20260503205003 | 12 | 187 | 8.0 | 19.3 | 0.00 | 0.00 | 0.00 | 32 | 1008.3 |
| 20260503204503 | 12 | 205 | 6.4 | 17.7 | 0.00 | 0.00 | 0.00 | 30 | 1008.4 |
| 20260503204003 | 12 | 211 | 6.4 | 17.7 | 0.00 | 0.00 | 0.00 | 29 | 1008.5 |
| 20260503203503 | 12 | 236 | 6.4 | 19.3 | 0.00 | 0.00 | 0.00 | 31 | 1008.5 |
| 20260503203003 | 12 | 244 | 8.0 | 19.3 | 0.00 | 0.00 | 0.00 | 32 | 1008.6 |